Regional Weather Roundup
Issued by NWS Sterling, VA

Home | Current Version | Previous Version | Text Only | Print | Product List | Glossary Off
Versions: 1 2 3 4 5 6 7 8 9 10 11 12 13 14 15 16 17 18 19 20 21 22 23 24 25 26 27 28 29 30 31 32 33 34 35 36 37 38 39 40 41 42 43 44 45 46 47 48 49 50

000
ASUS41 KLWX 290210
RWRLWX

REGIONAL WEATHER ROUNDUP
NATIONAL WEATHER SERVICE BALTIMORE MD/WASHINGTON DC
1000 PM EDT THU AUG 28 2014

Note: "FAIR" indicates few or no clouds below 12,000 feet
with no significant weather and/or obstructions to visibility.
 TC=TEMPERATURE CELSIUS

 * =Non NWS site. Station does not report precipitation (e.g. rain,
    snow, etc.), thunder, or fog.

DCZ001-MDZ009-015-VAZ040>042-051-053>054-290300-
WASHINGTON METRO
  /KDAA//-FT BELVOIR

CITY           SKY/WX    TMP DP  RH WIND       PRES   REMARKS
WASHINGTON NAT CLEAR     77  52  41 N10       30.07R
DULLES         CLEAR     70  53  54 N6        30.08R
ANDREWS AFB    CLEAR     65  54  68 N6        30.06R
QUANTICO       CLEAR     74  56  53 N8        30.06R
COLLEGE PARK*  CLEAR     68  57  68 CALM      30.07R
LEESBURG*      CLEAR     68  59  73 N5        30.09R
MANASSAS*      CLEAR     66  61  82 CALM      30.07R
GAITHERSBURG*  CLEAR     64  52  63 CALM      30.12R

$$

MDZ006>007-011-014-290300-
BALTIMORE METRO

CITY           SKY/WX    TMP DP  RH WIND       PRES   REMARKS
BWI AIRPORT    CLEAR     70  53  54 CALM      30.06R
MD SCIENCE CTR   N/A     75  52  44 MISG      30.07R
MARTIN STATE   PTCLDY    70  57  64 CALM      30.07R
ANNAPOLIS      CLEAR     75  58  55 N12       30.06R
FORT MEADE*    CLEAR     68  52  56 NE5       30.09R

$$

MDZ012-015-019>023-290300-
MARYLAND EASTERN SHORE

CITY           SKY/WX    TMP DP  RH WIND       PRES   REMARKS
OCEAN CITY     MOCLDY    67  61  81 N5        30.03R
SALISBURY      CLEAR     70  60  70 N5        30.04R
BAY BRIDGE AP*   N/A     73  52  46 N9G17     30.06R
CAMBRIDGE*     CLEAR     72  61  68 NE5       30.04R

$$

MDZ017>025-290300-
SOUTHERN MARYLAND

CITY           SKY/WX    TMP DP  RH WIND       PRES   REMARKS
PATUXENT RIVER CLEAR     74  55  51 N8        30.04R
ST INIGOES     CLEAR     74  56  53 VRB3      30.03R
LEONARDTOWN*   CLEAR     70  55  60 CALM      30.06R

$$

MDZ003>005-290300-
NORTH CENTRAL MARYLAND

CITY           SKY/WX    TMP DP  RH WIND       PRES   REMARKS
FREDERICK*     CLEAR     63  61  94 CALM      30.11R
HAGERSTOWN APT CLEAR     68  51  54 N7        30.10R
WESTMINSTER*   CLEAR     66  55  68 CALM      30.09R

$$

MDZ501>502-290300-
WESTERN MARYLAND

CITY           SKY/WX    TMP DP  RH WIND       PRES   REMARKS
OAKLAND*       CLEAR     57  54  88 NW5       30.19R
CUMBERLAND*    CLEAR     64  52  63 NE5       30.16R

$$

VAZ025>031-290300-
SHENANDOAH VALLEY

CITY           SKY/WX    TMP DP  RH WIND       PRES   REMARKS
WINCHESTER*    CLEAR     66  52  59 N3        30.10R
STAUNTON*      CLEAR     69  54  58 NE5       30.12R

$$

WVZ021-048>050-054>055-290300-
EASTERN WEST VIRGINIA PANHANDLE

CITY           SKY/WX    TMP DP  RH WIND       PRES   REMARKS
MARTINSBURG    CLEAR     69  48  47 NW3       30.11R
PETERSBURG*    NOT AVBL

$$

VAZ036>039-050-290300-
CENTRAL FOOTHILLS

CITY           SKY/WX    TMP DP  RH WIND       PRES   REMARKS
CHARLOTTESVILL CLEAR     74  59  59 NE8       30.07R
ORANGE*        CLEAR     70  59  68 NE3       30.09R

$$

VAZ055>057-290300-
NORTH AND CENTRAL PIEDMONT

CITY           SKY/WX    TMP DP  RH WIND       PRES   REMARKS
FREDERICKSBRG* CLEAR     74  64  69 N3        30.05R
STAFFORD*      CLEAR     70  60  70 N6        30.10R

$$

NCZ024-NYZ072-PAZ021-071-VAZ022-071-290300-
OTHER REGIONAL OBSERVATIONS

CITY           SKY/WX    TMP DP  RH WIND       PRES   REMARKS
NEW YORK CITY  CLEAR     70  44  39 MISG      30.06R
PHILADELPHIA   PTCLDY    72  52  49 N9        30.05R
PITTSBURGH     PTCLDY    66  51  58 N9        30.14R
ROANOKE        CLEAR     78  62  57 N3        30.09R
RICHMOND       CLOUDY    78  60  53 NE7       30.03R
RALEIGH        PTCLDY    78  72  81 CALM      30.01R

$$

ANZ530>537-290300-
MARINE OBSERVATIONS

STATION/POSITION TIME  TEMP    WIND        PRES
                       AIR SEA DIR/SP/G
                 (UTC) (F)     (DEG/KT/KT) (MB)
THOMAS PT LIGHT  0200   76 78   10/ 16/ 18 1018.3R
BALT KEY BRIDGE  0200   81     350/ 11/ 13 1017.6R
COVE POINT       0200   77      50/  8/ 10 1017.0R
LEWISETTA        0200   78 81   30/  7/ 11 1016.7R
SOLOMONS ISLAND  0200      81                N/A
PINEY POINT      0200           30/  7/  8   N/A

$$



USA.gov is the U.S. government's official web portal to all federal, state and local government web resources and services.